| time (UTC) | temp F | wind direction | speed knots | gust knots | rain 1hr in | rain 24hr in | rain mn in | humidity % | barometer mb |
| 20260505041324 | 48 | 293 | 0.0 | 0.0 | 0.00 | 0.00 | 0.00 | 80 | 1018.5 |
| 20260505040821 | 48 | 300 | 0.0 | 0.0 | 0.00 | 0.00 | 0.00 | 80 | 1018.5 |
| 20260505040319 | 48 | 293 | 0.0 | 0.9 | 0.00 | 0.00 | 0.00 | 80 | 1018.7 |
| 20260505035815 | 49 | 289 | 0.0 | 0.0 | 0.00 | 0.00 | 0.00 | 80 | 1018.6 |
| 20260505035311 | 49 | 300 | 0.0 | 0.0 | 0.00 | 0.00 | 0.00 | 78 | 1018.6 |
| 20260505034809 | 49 | 300 | 0.0 | 0.0 | 0.00 | 0.00 | 0.00 | 78 | 1018.7 |
| 20260505034305 | 49 | 304 | 0.9 | 1.7 | 0.00 | 0.00 | 0.00 | 77 | 1018.6 |
| 20260505033802 | 49 | 303 | 0.0 | 0.0 | 0.00 | 0.00 | 0.00 | 78 | 1018.7 |
| 20260505033259 | 50 | 297 | 0.0 | 0.0 | 0.00 | 0.00 | 0.00 | 78 | 1018.7 |
| 20260505032757 | 50 | 304 | 0.0 | 0.0 | 0.00 | 0.00 | 0.00 | 77 | 1018.9 |
| 20260505032253 | 50 | 304 | 0.0 | 0.0 | 0.00 | 0.00 | 0.00 | 76 | 1018.7 |
| 20260505031739 | 50 | 304 | 0.0 | 0.0 | 0.00 | 0.00 | 0.00 | 75 | 1019.1 |
| 20260505031235 | 50 | 304 | 0.0 | 0.0 | 0.00 | 0.00 | 0.00 | 75 | 1019.1 |
| 20260505030732 | 51 | 304 | 0.0 | 0.9 | 0.00 | 0.00 | 0.00 | 76 | 1019.0 |
| 20260505030228 | 51 | 304 | 0.0 | 0.0 | 0.00 | 0.00 | 0.00 | 75 | 1018.9 |
| 20260505025724 | 51 | 304 | 0.0 | 0.9 | 0.00 | 0.00 | 0.00 | 75 | 1019.1 |
| 20260505025222 | 51 | 283 | 0.9 | 0.9 | 0.00 | 0.00 | 0.00 | 74 | 1018.9 |
| 20260505024720 | 51 | 302 | 0.0 | 0.9 | 0.00 | 0.00 | 0.00 | 74 | 1018.9 |
| 20260505024217 | 51 | 300 | 0.0 | 0.9 | 0.00 | 0.00 | 0.00 | 75 | 1018.9 |
| 20260505023714 | 51 | 296 | 0.0 | 0.0 | 0.00 | 0.00 | 0.00 | 74 | 1018.7 |
| 20260505023211 | 51 | 294 | 0.0 | 0.0 | 0.00 | 0.00 | 0.00 | 73 | 1018.7 |
| 20260505022709 | 52 | 290 | 0.0 | 0.0 | 0.00 | 0.00 | 0.00 | 73 | 1019.0 |
| 20260505022205 | 52 | 308 | 0.0 | 0.9 | 0.00 | 0.00 | 0.00 | 74 | 1018.9 |
| 20260505021702 | 52 | 297 | 0.0 | 0.0 | 0.00 | 0.00 | 0.00 | 73 | 1018.6 |
| 20260505021159 | 52 | 290 | 0.0 | 0.0 | 0.00 | 0.00 | 0.00 | 74 | 1018.9 |
| 20260505020655 | 52 | 300 | 0.0 | 0.0 | 0.00 | 0.00 | 0.00 | 72 | 1018.6 |
| 20260505020151 | 53 | 298 | 0.0 | 0.0 | 0.00 | 0.00 | 0.00 | 73 | 1018.7 |
| 20260505015648 | 53 | 308 | 0.0 | 0.9 | 0.00 | 0.00 | 0.00 | 72 | 1018.5 |
| 20260505015144 | 53 | 297 | 0.0 | 0.9 | 0.00 | 0.00 | 0.00 | 72 | 1018.5 |
| 20260505014641 | 53 | 301 | 0.0 | 0.9 | 0.00 | 0.00 | 0.00 | 70 | 1018.5 |
| 20260505014139 | 54 | 300 | 0.0 | 0.0 | 0.00 | 0.00 | 0.00 | 69 | 1018.4 |
| 20260505013636 | 54 | 300 | 0.0 | 0.9 | 0.00 | 0.00 | 0.00 | 71 | 1018.5 |
| 20260505013133 | 54 | 282 | 0.0 | 0.9 | 0.00 | 0.00 | 0.00 | 68 | 1018.3 |
| 20260505012631 | 55 | 300 | 0.0 | 0.0 | 0.00 | 0.00 | 0.00 | 67 | 1018.4 |
| 20260505012128 | 55 | 308 | 0.0 | 0.9 | 0.00 | 0.00 | 0.00 | 67 | 1018.0 |
| 20260505011623 | 55 | 286 | 0.0 | 1.7 | 0.00 | 0.00 | 0.00 | 67 | 1018.3 |
| 20260505011121 | 56 | 300 | 0.0 | 0.0 | 0.00 | 0.00 | 0.00 | 65 | 1018.3 |
| 20260505010616 | 56 | 301 | 0.0 | 0.0 | 0.00 | 0.00 | 0.00 | 64 | 1018.2 |
| 20260505010113 | 57 | 302 | 0.9 | 0.9 | 0.00 | 0.00 | 0.00 | 63 | 1018.2 |
| 20260505005609 | 57 | 300 | 0.0 | 0.0 | 0.00 | 0.00 | 0.00 | 62 | 1018.2 |
| 20260505005107 | 58 | 324 | 0.9 | 1.7 | 0.00 | 0.00 | 0.00 | 62 | 1018.3 |
| 20260505004604 | 58 | 302 | 0.9 | 0.9 | 0.00 | 0.00 | 0.00 | 59 | 1018.2 |
| 20260505004100 | 59 | 301 | 0.0 | 0.0 | 0.00 | 0.00 | 0.00 | 59 | 1018.2 |
| 20260505003558 | 59 | 300 | 0.0 | 0.0 | 0.00 | 0.00 | 0.00 | 58 | 1017.8 |
| 20260505003055 | 60 | 328 | 1.7 | 1.7 | 0.00 | 0.00 | 0.00 | 55 | 1017.8 |
| 20260505002555 | 60 | 297 | 0.0 | 0.9 | 0.00 | 0.00 | 0.00 | 53 | 1017.8 |
| 20260505002055 | 61 | 296 | 0.0 | 0.9 | 0.00 | 0.00 | 0.00 | 53 | 1017.8 |
| 20260505001551 | 61 | 319 | 0.9 | 0.9 | 0.00 | 0.00 | 0.00 | 52 | 1017.8 |
| 20260505001048 | 62 | 285 | 0.9 | 2.6 | 0.00 | 0.00 | 0.00 | 51 | 1017.8 |
| 20260505000546 | 62 | 304 | 0.0 | 0.0 | 0.00 | 0.00 | 0.00 | 50 | 1017.7 |
| 20260505000043 | 62 | 304 | 0.0 | 0.9 | 0.00 | 0.00 | 0.00 | 49 | 1017.7 |
| 20260504235540 | 63 | 304 | 0.0 | 0.0 | 0.00 | 0.00 | 0.00 | 47 | 1017.7 |
| 20260504235037 | 63 | 302 | 0.0 | 0.0 | 0.00 | 0.00 | 0.00 | 46 | 1017.6 |
| 20260504234534 | 64 | 286 | 0.0 | 0.0 | 0.00 | 0.00 | 0.00 | 45 | 1017.3 |
| 20260504234031 | 64 | 266 | 0.9 | 1.7 | 0.00 | 0.00 | 0.00 | 44 | 1017.4 |
| 20260504233526 | 65 | 307 | 0.0 | 0.9 | 0.00 | 0.00 | 0.00 | 44 | 1017.3 |
| 20260504233023 | 65 | 302 | 0.0 | 0.9 | 0.00 | 0.00 | 0.00 | 42 | 1017.3 |
| 20260504232520 | 65 | 296 | 0.0 | 0.9 | 0.00 | 0.00 | 0.00 | 43 | 1017.4 |
| 20260504232018 | 65 | 315 | 0.9 | 1.7 | 0.00 | 0.00 | 0.00 | 41 | 1017.2 |
| 20260504231514 | 65 | 319 | 2.6 | 2.6 | 0.00 | 0.00 | 0.00 | 41 | 1017.3 |
| 20260504231010 | 65 | 317 | 0.9 | 0.9 | 0.00 | 0.00 | 0.00 | 41 | 1017.2 |
| 20260504230507 | 65 | 307 | 0.0 | 1.7 | 0.00 | 0.00 | 0.00 | 41 | 1017.3 |
| 20260504230006 | 64 | 306 | 0.0 | 1.7 | 0.00 | 0.00 | 0.00 | 40 | 1017.2 |
| 20260504225502 | 64 | 307 | 0.9 | 1.7 | 0.00 | 0.00 | 0.00 | 41 | 1017.0 |
| 20260504224959 | 65 | 319 | 0.9 | 1.7 | 0.00 | 0.00 | 0.00 | 40 | 1017.1 |
| 20260504224456 | 64 | 307 | 0.9 | 0.9 | 0.00 | 0.00 | 0.00 | 39 | 1017.3 |
| 20260504223953 | 64 | 307 | 0.0 | 0.9 | 0.00 | 0.00 | 0.00 | 39 | 1017.3 |
| 20260504223449 | 65 | 307 | 0.0 | 0.9 | 0.00 | 0.00 | 0.00 | 39 | 1017.3 |
| 20260504222945 | 65 | 317 | 0.0 | 0.9 | 0.00 | 0.00 | 0.00 | 39 | 1017.3 |
| 20260504222443 | 65 | 296 | 0.0 | 0.0 | 0.00 | 0.00 | 0.00 | 39 | 1017.4 |
| 20260504221940 | 65 | 306 | 0.0 | 0.9 | 0.00 | 0.00 | 0.00 | 38 | 1017.4 |
| 20260504221437 | 66 | 301 | 0.0 | 1.7 | 0.00 | 0.00 | 0.00 | 38 | 1017.4 |
| 20260504220934 | 66 | 312 | 0.0 | 0.9 | 0.00 | 0.00 | 0.00 | 40 | 1017.4 |
| 20260504220430 | 66 | 303 | 0.0 | 0.0 | 0.00 | 0.00 | 0.00 | 39 | 1017.7 |
| 20260504215928 | 66 | 304 | 0.0 | 1.7 | 0.00 | 0.00 | 0.00 | 34 | 1017.3 |
| 20260504215424 | 66 | 307 | 0.9 | 0.9 | 0.00 | 0.00 | 0.00 | 36 | 1017.6 |
| 20260504214921 | 66 | 296 | 0.0 | 0.0 | 0.00 | 0.00 | 0.00 | 36 | 1017.4 |
| 20260504214417 | 67 | 319 | 0.0 | 1.7 | 0.00 | 0.00 | 0.00 | 34 | 1017.6 |
| 20260504213914 | 66 | 289 | 0.9 | 0.9 | 0.00 | 0.00 | 0.00 | 34 | 1017.4 |
| 20260504213410 | 66 | 296 | 0.0 | 0.9 | 0.00 | 0.00 | 0.00 | 36 | 1017.3 |
| 20260504212908 | 66 | 289 | 0.0 | 4.3 | 0.00 | 0.00 | 0.00 | 34 | 1017.3 |
| 20260504212403 | 67 | 285 | 0.9 | 1.7 | 0.00 | 0.00 | 0.00 | 37 | 1017.6 |
| 20260504211901 | 67 | 288 | 0.0 | 0.9 | 0.00 | 0.00 | 0.00 | 37 | 1017.4 |
| 20260504211357 | 67 | 327 | 1.7 | 2.6 | 0.00 | 0.00 | 0.00 | 35 | 1017.4 |
| 20260504210855 | 68 | 299 | 0.0 | 1.7 | 0.00 | 0.00 | 0.00 | 35 | 1017.6 |
| 20260504210351 | 68 | 312 | 0.9 | 1.7 | 0.00 | 0.00 | 0.00 | 34 | 1017.2 |
| 20260504205848 | 69 | 310 | 1.7 | 1.7 | 0.00 | 0.00 | 0.00 | 35 | 1017.3 |
| 20260504205346 | 69 | 298 | 0.0 | 1.7 | 0.00 | 0.00 | 0.00 | 34 | 1017.4 |
| 20260504204844 | 70 | 299 | 0.9 | 1.7 | 0.00 | 0.00 | 0.00 | 32 | 1017.6 |
| 20260504204342 | 71 | 289 | 0.9 | 1.7 | 0.00 | 0.00 | 0.00 | 31 | 1017.7 |
| 20260504203842 | 72 | 310 | 0.9 | 0.9 | 0.00 | 0.00 | 0.00 | 33 | 1017.3 |
| 20260504203338 | 73 | 306 | 0.9 | 1.7 | 0.00 | 0.00 | 0.00 | 31 | 1017.6 |
| 20260504202833 | 74 | 279 | 0.9 | 0.9 | 0.00 | 0.00 | 0.00 | 30 | 1017.3 |
| 20260504202331 | 75 | 279 | 0.9 | 0.9 | 0.00 | 0.00 | 0.00 | 28 | 1017.7 |
| 20260504201828 | 75 | 289 | 0.0 | 1.7 | 0.00 | 0.00 | 0.00 | 29 | 1017.4 |
| 20260504201325 | 75 | 285 | 0.9 | 0.9 | 0.00 | 0.00 | 0.00 | 26 | 1017.4 |
| 20260504200822 | 75 | 300 | 1.7 | 1.7 | 0.00 | 0.00 | 0.00 | 27 | 1017.6 |
| 20260504200319 | 75 | 288 | 0.9 | 0.9 | 0.00 | 0.00 | 0.00 | 28 | 1017.6 |
| 20260504195815 | 75 | 296 | 0.9 | 1.7 | 0.00 | 0.00 | 0.00 | 26 | 1017.6 |
| 20260504195311 | 74 | 292 | 0.9 | 1.7 | 0.00 | 0.00 | 0.00 | 27 | 1017.7 |
| 20260504194808 | 74 | 279 | 0.9 | 1.7 | 0.00 | 0.00 | 0.00 | 26 | 1017.8 |
| 20260504194304 | 74 | 277 | 1.7 | 1.7 | 0.00 | 0.00 | 0.00 | 27 | 1017.9 |
| 20260504193800 | 73 | 315 | 0.9 | 2.6 | 0.00 | 0.00 | 0.00 | 32 | 1018.0 |
| 20260504193258 | 74 | 289 | 1.7 | 1.7 | 0.00 | 0.00 | 0.00 | 31 | 1017.9 |
| 20260504192756 | 74 | 303 | 1.7 | 2.6 | 0.00 | 0.00 | 0.00 | 30 | 1018.2 |
| 20260504192254 | 73 | 293 | 0.0 | 1.7 | 0.00 | 0.00 | 0.00 | 30 | 1018.1 |
| 20260504191752 | 73 | 296 | 1.7 | 4.3 | 0.00 | 0.00 | 0.00 | 30 | 1018.1 |
| 20260504191249 | 74 | 303 | 1.7 | 1.7 | 0.00 | 0.00 | 0.00 | 28 | 1018.1 |
| 20260504190744 | 74 | 298 | 1.7 | 1.7 | 0.00 | 0.00 | 0.00 | 32 | 1018.0 |
| 20260504190241 | 74 | 283 | 2.6 | 2.6 | 0.00 | 0.00 | 0.00 | 27 | 1018.2 |
| 20260504185737 | 75 | 285 | 0.9 | 1.7 | 0.00 | 0.00 | 0.00 | 29 | 1018.2 |
| 20260504185235 | 73 | 279 | 1.7 | 1.7 | 0.00 | 0.00 | 0.00 | 30 | 1018.4 |
| 20260504184731 | 73 | 296 | 0.0 | 4.3 | 0.00 | 0.00 | 0.00 | 30 | 1018.4 |
| 20260504184227 | 72 | 286 | 1.7 | 2.6 | 0.00 | 0.00 | 0.00 | 32 | 1018.4 |
| 20260504183723 | 73 | 291 | 0.9 | 2.6 | 0.00 | 0.00 | 0.00 | 33 | 1018.4 |
| 20260504183220 | 72 | 267 | 0.9 | 1.7 | 0.00 | 0.00 | 0.00 | 33 | 1018.5 |
| 20260504182718 | 72 | 283 | 0.9 | 1.7 | 0.00 | 0.00 | 0.00 | 31 | 1018.6 |
| 20260504182215 | 73 | 281 | 1.7 | 1.7 | 0.00 | 0.00 | 0.00 | 32 | 1018.6 |
| 20260504181712 | 72 | 283 | 0.0 | 1.7 | 0.00 | 0.00 | 0.00 | 35 | 1018.7 |
| 20260504181210 | 72 | 286 | 0.9 | 0.9 | 0.00 | 0.00 | 0.00 | 34 | 1018.7 |
| 20260504180709 | 72 | 273 | 0.9 | 1.7 | 0.00 | 0.00 | 0.00 | 32 | 1018.9 |
| 20260504180207 | 71 | 294 | 0.9 | 2.6 | 0.00 | 0.00 | 0.00 | 36 | 1018.6 |
| 20260504175704 | 71 | 300 | 0.9 | 1.7 | 0.00 | 0.00 | 0.00 | 37 | 1018.9 |
| 20260504175200 | 71 | 288 | 2.6 | 2.6 | 0.00 | 0.00 | 0.00 | 36 | 1019.0 |
| 20260504174658 | 71 | 282 | 2.6 | 2.6 | 0.00 | 0.00 | 0.00 | 34 | 1018.9 |
| 20260504174155 | 71 | 297 | 0.0 | 1.7 | 0.00 | 0.00 | 0.00 | 38 | 1018.9 |
| 20260504173652 | 70 | 290 | 0.0 | 0.9 | 0.00 | 0.00 | 0.00 | 39 | 1019.2 |
| 20260504173149 | 69 | 292 | 0.9 | 1.7 | 0.00 | 0.00 | 0.00 | 34 | 1019.0 |
| 20260504172646 | 69 | 292 | 1.7 | 2.6 | 0.00 | 0.00 | 0.00 | 37 | 1019.1 |
| 20260504172142 | 70 | 283 | 1.7 | 2.6 | 0.00 | 0.00 | 0.00 | 35 | 1019.0 |
| 20260504171639 | 70 | 291 | 1.7 | 1.7 | 0.00 | 0.00 | 0.00 | 38 | 1019.1 |
| 20260504171136 | 69 | 291 | 2.6 | 2.6 | 0.00 | 0.00 | 0.00 | 33 | 1019.2 |
| 20260504170632 | 69 | 264 | 1.7 | 2.6 | 0.00 | 0.00 | 0.00 | 34 | 1019.2 |
| 20260504170130 | 69 | 298 | 0.9 | 2.6 | 0.00 | 0.00 | 0.00 | 35 | 1019.3 |
| 20260504151021 | 62 | 310 | 0.9 | 1.7 | 0.00 | 0.00 | 0.00 | 35 | 1020.7 |
| 20260504150519 | 62 | 284 | 2.6 | 2.6 | 0.00 | 0.00 | 0.00 | 39 | 1020.8 |
| 20260504140945 | 56 | 293 | 0.9 | 1.7 | 0.00 | 0.00 | 0.00 | 58 | 1020.8 |
| 20260504140441 | 55 | 289 | 0.9 | 0.9 | 0.00 | 0.00 | 0.00 | 59 | 1020.8 |
| 20260504130406 | 47 | 289 | 0.9 | 0.9 | 0.00 | 0.00 | 0.00 | 72 | 1020.5 |
| 20260504110253 | 35 | 292 | 0.0 | 0.0 | 0.00 | 0.00 | 0.00 | 96 | 1019.8 |
| 20260504100217 | 36 | 292 | 0.0 | 0.0 | 0.00 | 0.00 | 0.00 | 94 | 1019.6 |
| 20260504090139 | 36 | 312 | 0.0 | 0.9 | 0.00 | 0.00 | 0.00 | 93 | 1020.0 |
| 20260504081609 | 37 | 288 | 0.0 | 0.0 | 0.00 | 0.00 | 0.00 | 92 | 1019.6 |
| 20260504081105 | 37 | 292 | 0.0 | 0.0 | 0.00 | 0.00 | 0.00 | 92 | 1019.6 |
| 20260504080602 | 37 | 291 | 0.0 | 0.0 | 0.00 | 0.00 | 0.00 | 91 | 1019.5 |
| 20260504050415 | 40 | 292 | 0.0 | 0.0 | 0.00 | 0.00 | 0.00 | 85 | 1019.9 |
| 20260504045912 | 40 | 292 | 0.0 | 0.0 | 0.00 | 0.00 | 0.00 | 84 | 1020.0 |
| 20260504045408 | 40 | 292 | 0.0 | 0.0 | 0.00 | 0.00 | 0.00 | 84 | 1019.9 |
| 20260504044904 | 40 | 292 | 0.0 | 0.9 | 0.00 | 0.00 | 0.00 | 84 | 1019.9 |
| 20260504044402 | 40 | 292 | 0.0 | 0.0 | 0.00 | 0.00 | 0.00 | 84 | 1020.0 |
| 20260504043859 | 41 | 292 | 0.0 | 0.0 | 0.00 | 0.00 | 0.00 | 83 | 1019.7 |
| 20260504043356 | 41 | 292 | 0.0 | 0.0 | 0.00 | 0.00 | 0.00 | 83 | 1019.6 |
| 20260504042853 | 41 | 292 | 0.0 | 0.0 | 0.00 | 0.00 | 0.00 | 83 | 1019.6 |
| 20260504042349 | 41 | 292 | 0.0 | 0.0 | 0.00 | 0.00 | 0.00 | 82 | 1019.9 |
| 20260504041846 | 41 | 292 | 0.0 | 0.0 | 0.00 | 0.00 | 0.00 | 82 | 1019.8 |